Weather History for Wise, VA

Change the Weather History Date:

Monday, April 15, 2013

  Actual Average Record
Temperature  
Mean Temperature 60 °F -  
Max Temperature 69 °F 61 °F 78 °F (2002)
Min Temperature 50 °F 42 °F 30 °F (2004)
Degree Days  
Heating Degree Days 6    
Growing Degree Days 10 (Base 50)    
Moisture  
Dew Point 52 °F    
Average Humidity 80    
Maximum Humidity 100    
Minimum Humidity 53    
Precipitation  
Precipitation 0.00 in - - ()
Sea Level Pressure  
Sea Level Pressure 30.07 in    
Wind  
Wind Speed 4 mph (SSE)    
Max Wind Speed 13 mph    
Max Gust Speed 18 mph    
Visibility 10 miles    
Events Rain    
Averages and records for this station are not official NWS values.
T = Trace of Precipitation, MM = Missing Value Source: NWS Daily Summary

Daily Weather History Graph

Daily Weather History Graph

Search for Another Location

Airport:

Trip Planner

Search our weather history database for the weather conditions in past years. The results will help you decide how hot, cold, wet, or windy it might be!

Date:

Astronomy

Apr. 15, 2013 Rise Set
Actual Time 6:55 AM EDT 8:05 PM EDT
Civil Twilight 6:28 AM EDT 8:31 PM EDT
Nautical Twilight 5:56 AM EDT 9:03 PM EDT
Astronomical Twilight 5:23 AM EDT 9:37 PM EDT
Moon 10:24 AM EDT (4/15) 12:12 AM EDT (4/15)
Length of Visible Light 14h 03m
Length of Day
13h 09m
Waxing Crescent, 24% of the Moon is Illuminated
Apr 15
Waxing Crescent
Apr 18
First Quarter
Apr 25
Full
May 2
Last Quarter
May 9
New

Hourly Weather History & Observations

Time (EDT) Temp. Dew Point Humidity Pressure Visibility Wind Dir Wind Speed Gust Speed Precip Events Conditions
12:15 AM 51.8 °F 46.4 °F 82% 30.03 in 10.0 mi Calm Calm - N/A Rain Light Rain
12:35 AM 50.0 °F 46.4 °F 87% 30.03 in 10.0 mi Calm Calm - N/A Rain Light Rain
12:55 AM 50.0 °F 48.2 °F 94% 30.02 in 10.0 mi Calm Calm - N/A Rain Rain
1:15 AM 50.0 °F 50.0 °F 100% 30.02 in 10.0 mi Calm Calm - N/A   Drizzle
1:35 AM 50.0 °F 50.0 °F 100% 30.02 in 10.0 mi Calm Calm - N/A   Drizzle
1:55 AM 50.0 °F 50.0 °F 100% 30.01 in 10.0 mi ESE 3.5 mph - N/A Rain Light Rain
2:15 AM 50.0 °F 50.0 °F 100% 30.00 in 10.0 mi Calm Calm - N/A Rain Light Rain
2:35 AM 50.0 °F 50.0 °F 100% 30.00 in 10.0 mi Calm Calm - N/A Rain Light Rain
2:55 AM 50.0 °F 50.0 °F 100% 30.00 in 10.0 mi East 3.5 mph - N/A   Light Drizzle
3:15 AM 50.0 °F 50.0 °F 100% 30.00 in 10.0 mi ESE 4.6 mph - N/A   Light Drizzle
3:35 AM 50.0 °F 50.0 °F 100% 30.00 in 7.0 mi SE 5.8 mph - N/A   Drizzle
3:55 AM 50.0 °F 50.0 °F 100% 30.00 in 10.0 mi SE 3.5 mph - N/A   Light Drizzle
4:15 AM 50.0 °F 50.0 °F 100% 30.00 in 10.0 mi SE 3.5 mph - N/A Rain Light Rain
4:35 AM 50.0 °F 50.0 °F 100% 30.00 in 10.0 mi SE 3.5 mph - N/A   Light Drizzle
4:55 AM 50.0 °F 50.0 °F 100% 30.00 in 10.0 mi ESE 3.5 mph - N/A   Overcast
5:15 AM 50.0 °F 50.0 °F 100% 29.98 in 10.0 mi Calm Calm - N/A   Overcast
5:35 AM 50.0 °F 50.0 °F 100% 29.98 in 10.0 mi SE 3.5 mph - N/A   Overcast
5:55 AM 51.8 °F 51.8 °F 100% 29.99 in 10.0 mi Calm Calm - N/A   Overcast
6:15 AM 51.8 °F 51.8 °F 100% 30.01 in 10.0 mi Calm Calm - N/A   Overcast
6:35 AM 51.8 °F 51.8 °F 100% 30.02 in 10.0 mi Calm Calm - N/A   Overcast
6:55 AM 51.8 °F 51.8 °F 100% 30.02 in 10.0 mi SSE 5.8 mph - N/A   Overcast
7:15 AM 53.6 °F 51.8 °F 94% 30.03 in 10.0 mi SSE 6.9 mph - N/A   Overcast
7:35 AM 53.6 °F 51.8 °F 94% 30.04 in 10.0 mi SSE 6.9 mph - N/A   Overcast
7:55 AM 53.6 °F 51.8 °F 94% 30.05 in 10.0 mi SSE 5.8 mph - N/A   Overcast
8:15 AM 53.6 °F 51.8 °F 94% 30.06 in 10.0 mi SSE 5.8 mph - N/A   Overcast
8:35 AM 53.6 °F 51.8 °F 94% 30.07 in 10.0 mi South 3.5 mph - N/A   Overcast
8:55 AM 53.6 °F 51.8 °F 94% 30.07 in 10.0 mi SSE 4.6 mph - N/A   Overcast
9:15 AM 55.4 °F 51.8 °F 88% 30.07 in 10.0 mi SSE 6.9 mph - N/A   Overcast
9:35 AM 55.4 °F 50.0 °F 82% 30.07 in 10.0 mi SSE 8.1 mph - N/A   Overcast
9:55 AM 55.4 °F 50.0 °F 82% 30.08 in 10.0 mi South 8.1 mph - N/A   Overcast
10:15 AM 55.4 °F 51.8 °F 88% 30.08 in 10.0 mi South 8.1 mph - N/A   Overcast
10:35 AM 57.2 °F 51.8 °F 82% 30.08 in 10.0 mi South 8.1 mph - N/A   Overcast
10:55 AM 57.2 °F 51.8 °F 82% 30.09 in 10.0 mi SSE 8.1 mph - N/A   Overcast
11:15 AM 59.0 °F 51.8 °F 77% 30.10 in 10.0 mi SSE 6.9 mph - N/A   Overcast
11:35 AM 60.8 °F 53.6 °F 77% 30.10 in 10.0 mi South 11.5 mph - N/A   Overcast
11:55 AM 60.8 °F 51.8 °F 72% 30.10 in 10.0 mi South 6.9 mph - N/A   Overcast
12:15 PM 62.6 °F 53.6 °F 72% 30.10 in 10.0 mi South 8.1 mph - N/A   Overcast
12:35 PM 62.6 °F 53.6 °F 72% 30.10 in 10.0 mi SSW 10.4 mph - N/A   Overcast
12:55 PM 64.4 °F 53.6 °F 68% 30.09 in 10.0 mi South 5.8 mph - N/A   Overcast
1:15 PM 64.4 °F 53.6 °F 68% 30.10 in 10.0 mi SW 4.6 mph - N/A   Overcast
1:35 PM 64.4 °F 53.6 °F 68% 30.09 in 10.0 mi South 8.1 mph - N/A   Overcast
1:55 PM 68.0 °F 55.4 °F 64% 30.09 in 10.0 mi South 6.9 mph - N/A   Overcast
2:15 PM 66.2 °F 51.8 °F 60% 30.09 in 10.0 mi South 10.4 mph - N/A   Overcast
2:35 PM 66.2 °F 51.8 °F 60% 30.09 in 10.0 mi South 9.2 mph - N/A   Overcast
2:55 PM 68.0 °F 51.8 °F 56% 30.09 in 10.0 mi SSE 6.9 mph - N/A   Mostly Cloudy
3:15 PM 68.0 °F 51.8 °F 56% 30.09 in 10.0 mi SSE 4.6 mph - N/A   Overcast
3:35 PM 68.0 °F 51.8 °F 56% 30.08 in 10.0 mi South 5.8 mph - N/A   Overcast
3:55 PM 68.0 °F 51.8 °F 56% 30.08 in 10.0 mi South 9.2 mph - N/A   Overcast
4:15 PM 69.8 °F 53.6 °F 56% 30.07 in 10.0 mi SSE 10.4 mph 17.3 mph N/A   Mostly Cloudy
4:35 PM 69.8 °F 51.8 °F 53% 30.07 in 10.0 mi South 9.2 mph - N/A   Mostly Cloudy
4:55 PM 69.8 °F 51.8 °F 53% 30.07 in 10.0 mi SSE 4.6 mph - N/A   Scattered Clouds
5:15 PM 69.8 °F 51.8 °F 53% 30.07 in 10.0 mi South 5.8 mph - N/A   Mostly Cloudy
5:35 PM 69.8 °F 51.8 °F 53% 30.07 in 10.0 mi SSE 8.1 mph - N/A   Mostly Cloudy
5:55 PM 69.8 °F 53.6 °F 56% 30.08 in 10.0 mi South 3.5 mph - N/A   Clear
6:15 PM 69.8 °F 51.8 °F 53% 30.08 in 10.0 mi SE 4.6 mph - N/A   Clear
6:35 PM 69.8 °F 53.6 °F 56% 30.08 in 10.0 mi SSE 4.6 mph - N/A   Clear
6:55 PM 68.0 °F 53.6 °F 60% 30.08 in 10.0 mi ESE 4.6 mph - N/A   Clear
7:15 PM 68.0 °F 53.6 °F 60% 30.09 in 10.0 mi ESE 6.9 mph - N/A   Clear
7:35 PM 64.4 °F 53.6 °F 68% 30.09 in 10.0 mi SE 5.8 mph - N/A   Clear
7:55 PM 62.6 °F 51.8 °F 68% 30.09 in 10.0 mi SSE 4.6 mph - N/A   Clear
8:15 PM 62.6 °F 51.8 °F 68% 30.10 in 10.0 mi SSE 6.9 mph - N/A   Clear
8:35 PM 60.8 °F 51.8 °F 72% 30.11 in 10.0 mi SSE 4.6 mph - N/A   Clear
8:55 PM 59.0 °F 51.8 °F 77% 30.12 in 10.0 mi SSE 6.9 mph - N/A   Clear
9:15 PM 59.0 °F 51.8 °F 77% 30.12 in 10.0 mi SSE 6.9 mph - N/A   Clear
9:35 PM 59.0 °F 51.8 °F 77% 30.13 in 10.0 mi SSE 8.1 mph - N/A   Clear
9:55 PM 59.0 °F 51.8 °F 77% 30.14 in 10.0 mi South 10.4 mph 17.3 mph N/A   Clear
10:15 PM 57.2 °F 51.8 °F 82% 30.15 in 10.0 mi SSE 8.1 mph - N/A   Clear
10:35 PM 57.2 °F 51.8 °F 82% 30.15 in 10.0 mi SSE 10.4 mph 18.4 mph N/A   Clear
10:55 PM 57.2 °F 51.8 °F 82% 30.16 in 10.0 mi SSE 10.4 mph 17.3 mph N/A   Clear
11:15 PM 57.2 °F 51.8 °F 82% 30.16 in 10.0 mi SSE 9.2 mph - N/A   Clear
11:35 PM 55.4 °F 50.0 °F 82% 30.16 in 10.0 mi SSE 12.7 mph 16.1 mph N/A   Clear
11:55 PM 55.4 °F 50.0 °F 82% 30.16 in 10.0 mi SSE 10.4 mph 17.3 mph N/A   Clear